sat.trackr.live / text

‹ back to catalog

YUBILEINY (RS30)

NORAD 32953 · 2008-025A

PAYLOAD ACTIVE UNKNOWN

§ Identity

Operator
Country
CIS
Launch date
2008-05-23
Launch site
PLMSC
Launch vehicle
Mass (kg)
RCS (m²)
0.39

Purposes: comms

External: N2YO · Heavens-Above · Gunter

§ Orbital elements

Epoch: 2026-05-25T03:53:35.642976Z

Period
115.83 min
Inclination
82.5058°
Eccentricity
0.0019844
Mean motion
12.43178323 rev/d
Perigee alt
1,477.5 km
Apogee alt
1,508.8 km
Semi-major
7,871.3 km
B*
1.0473e-4
RAAN
9.7638°
Arg perigee
4.7168°
Mean anomaly
355.4095°
Rev number
81,683

§ Raw data

YUBILEINY (RS30)1 32953U 08025A   26145.16221809  .00000024  00000+0  10473-3 0  99972 32953  82.5058   9.7638 0019844   4.7168 355.4095 12.43178323816838

JSON: /api/v1/satellites/32953 · /tle

For live sub-satellite position, see the globe view (requires WebGL).

§ Visibility from observer

Set your observer location to see the next 7 days of passes ≥ 10°. The values pass through the URL so the page stays shareable.

No JS? Fill the form by hand. The geolocation button needs JavaScript.

§ Radio — SatNOGS DB

ModeDescriptionDownlinkUplink
FM 435.353 435.353 MHz
CW PE0SAT - CW Beacon 435.316 MHz
PSK Telemetry Beacon 1 Beacon 435.215 MHz
DOKA Telemetry Beacon 2 Beacon 435.315 MHz

4 transmitters · refreshed weekly from db.satnogs.org